User: anonymous   Login
Location: Unspecified
(0.0000°N, 0.0000°E)
Time: 22:19:05
(UTC+00:00)
Language:

USA 153 - Orbit

View from above orbital plane
View from above orbital plane
View from above satellite
View from above satellite

Ground track
Ground track

The orbit data is extracted from the following two-line orbital elements,

1 26575U 00065A   24107.80642383 -.00000329  00000-0  00000-0 0  9999
2 26575  10.2508  41.4298 0002036 321.3873 267.3286  1.00275599 24995
Epoch (UTC): 16 April 2024 19:21:15
Eccentricity: 0.0002036
inclination: 10.2508°
perigee height: 35776 km
apogee height: 35794 km
right ascension of ascending node: 41.4298°
argument of perigee: 321.3873°
revolutions per day: 1.00275599
mean anomaly at epoch: 267.3286°
orbit number at epoch: 2499

The dashed part of the orbit path shows where the satellite is in the earth's shadow,  

DLR